Regional Weather Roundup
Issued by NWS

Home | Current Version | Previous Version | Text Only | Print | Product List | Glossary Off
Versions: 1 2 3 4 5 6 7 8 9 10 11 12 13 14 15 16 17 18 19 20 21 22 23 24 25 26 27 28 29 30 31 32 33 34 35 36 37 38 39 40 41 42 43 44 45 46 47 48 49 50

000
ASUS43 KLMK 251710
RWRKY
KENTUCKY REGIONAL WEATHER ROUNDUP
NATIONAL WEATHER SERVICE LOUISVILLE KY
1200 PM EST SAT FEB 25 2017

NOTE "FAIR" INDICATES FEW OR NO CLOUDS BELOW 12,000 FEET
WITH NO SIGNIFICANT WEATHER AND/OR OBSTRUCTIONS TO VISIBILITY.

KYZ001>023-026-027-061>063-070>075-251800-
WESTERN AND SOUTH CENTRAL KENTUCKY

CITY           SKY/WX    TMP DP  RH WIND       PRES   REMARKS
PADUCAH        SUNNY     38  17  42 NW14      30.07R WCI  30
HENDERSON      CLOUDY    36  19  51 W14G23    30.05R WCI  27
OWENSBORO      CLOUDY    34  20  56 W17       30.04R WCI  23
HOPKINSVILLE   PTSUNNY   38  20  47 W17       30.04R WCI  29
BOWLING GREEN  CLOUDY    38  20  48 W13G24    30.03R WCI  30
GLASGOW        CLOUDY    39  23  53 W13G23    30.00R WCI  31
$$

KYZ024-025-028>034-038-045-046-053-251800-
NORTH CENTRAL KENTUCKY

CITY           SKY/WX    TMP DP  RH WIND       PRES   REMARKS
LOUISVILLE/SDF CLOUDY    34  20  56 W18G29    29.97R WCI  23
LOUISVILLE/LOU CLOUDY    36  20  52 W20       29.97R WCI  25
FORT KNOX      CLOUDY    33  19  55 W18G26    29.95R WCI  22
$$

KYZ035>037-039>044-047>052-055>060-089>105-251800-
NORTHEAST KENTUCKY

CITY           SKY/WX    TMP DP  RH WIND       PRES   REMARKS
LEXINGTON      CLOUDY    35  21  56 W21G29    29.92R WCI  24
COVINGTON      CLOUDY    34  25  69 W15       29.86R WCI  24
FRANKFORT      CLOUDY    35  19  52 W14G26    29.92R WCI  26
$$

KYZ054-064>069-076>088-106>120-251800-
SOUTHEAST KENTUCKY

CITY           SKY/WX    TMP DP  RH WIND       PRES   REMARKS
JACKSON        CLOUDY    42  30  62 W15G29    29.84R
LONDON         CLOUDY    40  28  62 W22G31    29.89R WCI  30
SOMERSET       CLOUDY    37  27  65 W14G22    29.96R WCI  29
MIDDLESBORO    PTSUNNY   51  33  50 NW13G24   29.86R
MONTICELLO     PTSUNNY   43  30  60 W20G29    29.96R
$$





USA.gov is the U.S. government's official web portal to all federal, state and local government web resources and services.